Regional Weather Roundup
Issued by NWS

Current Version | Previous Version | Text Only | Print | Product List | Glossary On
Versions: 1 2 3 4 5 6 7 8 9 10 11 12 13 14 15 16 17 18 19 20 21 22 23 24 25 26 27 28 29 30 31 32 33 34 35 36 37 38 39 40 41 42 43 44 45 46 47 48 49 50
000
ASUS42 KTBW 300516
RWRFL
FLORIDA REGIONAL WEATHER ROUNDUP
NATIONAL WEATHER SERVICE TAMPA BAY RUSKIN FL
100 AM EDT SUN AUG 30 2015

NOTE: "FAIR" INDICATES FEW OR NO CLOUDS BELOW 12,000 FEET WITH NO
SIGNIFICANT WEATHER AND/OR OBSTRUCTIONS TO VISIBILITY.


FLZ001>010-012>015-112-114-115-300600-
PANHANDLE FLORIDA

CITY           SKY/WX    TMP DP  RH WIND       PRES   REMARKS
PENSACOLA      CLEAR     74  68  81 E8        30.04F
PENSACOLA NAS  CLEAR     76  71  85 E8        30.04F
MILTON NAS     CLEAR     70  68  93 E5        30.06
CRESTVIEW      CLEAR     69  68  96 CALM      30.07F
DUKE FIELD     FAIR      70  68  92 CALM      30.05F
VALPARAISO     PTCLDY    74  69  83 E3        30.05F
MARY ESTHER    CLEAR     73  69  87 CALM      30.03F
TRI COUNTY     FAIR      71  69  93 CALM      30.07F
PANAMA CITY    FAIR      72  70  93 N3        30.05F
TYNDALL AFB    CLEAR     73  72  94 NE5       30.05F
APALACHICOLA   CLEAR     71  71 100 NE6       30.04F

STATION/POSITION SKY/WX   TEMP    WIND        PRES    WAVE   SWELL
                          AIR SEA DIR/SP/G            HT/PER HT/PER
                          (F)     (DEG/KT/KT) (MB)    (FT/S) (FT/S)
30.1N   87.6W              83 85  120/ 10/ 12 1016.6F   2/ 5   2/ 5
29.2N   88.2W              83 85  140/  8/ 10 1017.2F   2/ 6   2/ 6
28.8N   86.0W              82 85  100/ 10/ 14 1017.3F   2/ 4
PANAMA CITY BEAC NOT AVBL
CAPE SAN BLAS    NOT AVBL
TOWER C                    81      90/ 12/ 15 1016.9F
28.5N   84.5W              83 85   70/  6/  8 1016.7F   1/ 4

$$
FLZ011-016>038-118-127-128-134-139-239-300600-
NORTH FLORIDA

CITY           SKY/WX    TMP DP  RH WIND       PRES   REMARKS
MARIANNA       CLOUDY    73  73 100 NE5       30.06F
TALLAHASSEE    PTCLDY    75  72  90 E5        30.06F
PERRY          MOCLDY   N/A N/A N/A CALM      30.07F
CROSS CITY       N/A     76  73  91 CALM      30.05F
LAKE CITY      CLOUDY    72  72 100 CALM      30.07F FOG
GAINESVILLE    CLOUDY    74  73  97 NE3       30.06F
MAYPORT NAS    CLOUDY    80  75  84 SE7       30.07F
JACKSONVILLE   CLOUDY    77  76  96 N3        30.07F
JAX NAS        LGT RAIN  81  74  79 SE6       30.08F
JAX CRAIG      CLOUDY    77  73  87 SE3       30.07F
JAX CECIL      LGT RAIN  73  73 100 CALM      30.08F
FERNANDINA BEA FAIR      82  73  74 SE9       30.07F
ST AUGUSTINE   RAIN      74  71  91 SE15G21   30.08F

STATION/POSITION SKY/WX   TEMP    WIND        PRES    WAVE   SWELL
                          AIR SEA DIR/SP/G            HT/PER HT/PER
                          (F)     (DEG/KT/KT) (MB)    (FT/S) (FT/S)
SHELL POINT                74      40/  2/  4   N/A
KEATON BEACH               74      40/  1/  3 1017.8F
CEDAR KEY                  77      70/ 11/ 12 1017.7F
FERNANDINA       NOT AVBL
30.7N   81.3W                 86                N/A     4/12   2/12
MAYPORT          NOT AVBL
31.4N   80.9W              83 85  100/ 12/ 16 1018.8F   3/11   3/11
ST AUGUSTINE               77 85  160/ 19/ 21 1019.4F

$$
FLZ040-043>046-052-053-057-058-063-144-300600-
INTERIOR CENTRAL FLORIDA

CITY           SKY/WX    TMP DP  RH WIND       PRES   REMARKS
OCALA          CLOUDY    73  70  88 NE6       30.04F
THE VILLAGES     N/A     73  72  94 NE10G17   29.93F
LEESBURG       CLOUDY    74  72  93 E10       30.06F
SANFORD        CLOUDY    72  70  93 NE12      30.06F
ORLANDO EXEC   CLOUDY    73  73 100 NE10      30.07S
ORLANDO INTL   LGT RAIN  74  74 100 NE12      30.06F
WINTER HAVEN   LGT RAIN  74  73  97 E12       30.02F
LAKELAND       CLOUDY    73  72  94 MISG      30.00F
BARTOW         FAIR      73 N/A N/A CALM      30.01F
OKEECHOBEE     CLOUDY    73  72  94 N10       30.03F

$$
FLZ041-047-054-059-064-141-147-300600-
EAST CENTRAL FLORIDA

CITY           SKY/WX    TMP DP  RH WIND       PRES   REMARKS
DAYTONA BEACH  LGT RAIN  73  72  96 VRB5      30.11F
DELAND           N/A     72  72 100 E14       30.10R
JFK SPACE CTR  LGT RAIN  73  72  94 N8        30.10R
CAPE CANAVERAL CLOUDY    75  72  88 N12       30.05F
PATRICK AFB    CLOUDY    76  74  94 N10       30.05F
MELBOURNE      CLOUDY    74  73  97 N6        30.05F
VERO BEACH     CLOUDY    77  74  90 NW12      30.03F
FT PIERCE      CLOUDY    77  76  96 N5        30.03F
STUART           N/A     77  73  88 W3        30.02F

STATION/POSITION SKY/WX   TEMP    WIND        PRES    WAVE   SWELL
                          AIR SEA DIR/SP/G            HT/PER HT/PER
                          (F)     (DEG/KT/KT) (MB)    (FT/S) (FT/S)
28.5N   80.2W              80 84   CALM  /  4 1019.0
28.9N   78.5W              84 85  120/ 17/ 23 1019.0R
TRIDENT PIER     NOT AVBL
28.4N   80.5W                 86                N/A     3/11   2/11
27.5N   80.2W                 85                N/A     4/12   2/12

$$
FLZ050-056-061-142-242-148-248-149-249-151-251-155-255-
160-260-300600-
WEST CENTRAL FLORIDA

CITY           SKY/WX    TMP DP  RH WIND       PRES   REMARKS
CRYSTAL RIVER  FAIR      73  72  94 CALM      30.04S
INVERNESS      MOCLDY    73  73 100 NE3       30.04S
BROOKSVILLE    CLOUDY    74  71  91 NE3       30.04S
CLEARWATER     CLOUDY    76  72  87 E5        30.01F
TAMPA INTL     CLOUDY    76  71  85 VRB6      30.02F
TAMPA EXEC     CLOUDY    75  72  88 NE3       30.01F
PLANT CITY     CLOUDY    75  73  94 NE6       30.02F
MACDILL AFB    CLOUDY    75  75 100 E9        30.00F
PETER O KNIGHT CLOUDY    77  73  88 NE6       30.01F
ST PETERSBURG  CLOUDY    79  74  84 E13       29.99F
SARASOTA       CLOUDY    74  71  91 NE5       29.97F
VENICE         FAIR      75  72  88 E10       29.99F

STATION/POSITION SKY/WX   TEMP    WIND        PRES    WAVE   SWELL
                          AIR SEA DIR/SP/G            HT/PER HT/PER
                          (F)     (DEG/KT/KT) (MB)    (FT/S) (FT/S)
CEDAR KEY                  77      70/ 11/ 12 1017.7F
28.5N   84.5W              83 85   70/  6/  8 1016.7F   1/ 4
27.3N   84.2W                 86                N/A     2/ 3
CLEARWATER BEACH NOT AVBL
MIDDLE TAMPA BAY NOT AVBL
VENICE                     76 87   70/  8/ 12 1014.5F

$$
FLZ066-069-070-075>078-162-262-165-265-300600-
SOUTHWEST FLORIDA AND KEYS

CITY           SKY/WX    TMP DP  RH WIND       PRES   REMARKS
PUNTA GORDA    CLOUDY    74  73  97 NE8       29.99F
FT MYERS       CLOUDY    75  73  93 NE7       29.97F
SOUTHWEST INTL CLOUDY    76  72  87 N6        29.97F
NAPLES         CLOUDY    77  74  90 NE8       29.95F
MARATHON       TSTM     N/A N/A N/A NE18G38   29.94R
KEY WEST NAS   CLOUDY    82  78  88 NE15G21   29.92F THUNDER
KEY WEST INTL  CLOUDY    81  79  94 N7        29.92F

STATION/POSITION SKY/WX   TEMP    WIND        PRES    WAVE   SWELL
                          AIR SEA DIR/SP/G            HT/PER HT/PER
                          (F)     (DEG/KT/KT) (MB)    (FT/S) (FT/S)
VENICE                     76 87   70/  8/ 12 1014.5F
NAPLES           NOT AVBL
26.0N   85.6W              85 86   40/ 10/ 12 1015.7S   3/ 5   2/ 5
DRY TORTUGAS                      360/ 25/ 27   N/A
NW FL BAY                  82      20/ 12/ 14 1014.6
SAND KEY                   82      50/ 11     1013.4F
LONG KEY                   80 87   50/ 14/ 18 1015.0R
MOLASSES REEF              80 87  120/ 13/ 15 1013.8S

$$
FLZ067-068-071>074-168-172>174-300600-
SOUTHEAST FLORIDA

CITY           SKY/WX    TMP DP  RH WIND       PRES   REMARKS
W PALM BEACH   CLOUDY    79  76  90 N6        30.00F
FT LAUDER-EXEC TSTM      83  78  85 SE7       29.97F
FT LAUDERDALE  RAIN      80  77  90 E12G30    29.96F
POMPANO BEACH  CLOUDY    85  76  74 E14       29.97F THUNDER
PEMBROKE PINES MOCLDY    83  77  82 E10       29.97F
OPA LOCKA      LGT RAIN  79  77  94 SE13      29.96F
MIAMI          TSTM      80  78  94 E12G22    29.96F FOG
WEST KENDALL   MOCLDY    81  78  91 E10       29.96F
HOMESTEAD      TSTM      79  77  94 E6        29.96R VSB 3/4

STATION/POSITION SKY/WX   TEMP    WIND        PRES    WAVE   SWELL
                          AIR SEA DIR/SP/G            HT/PER HT/PER
                          (F)     (DEG/KT/KT) (MB)    (FT/S) (FT/S)
PORT EVERGLADES            83      90/  6/ 16 1014.5F
SETTLEMENT POINT           82     130/ 13/ 15 1016.5F

$$



USA.gov is the U.S. government's official web portal to all federal, state and local government web resources and services.